Temperature
13 13 13 13 13 13 12 12 12 12 12 12 11 11 11 11 11 11 11 10 10 10 10 10 10 10 9 9 9 9 9 9 8 9 8 8 8 7 7 7 7 6 6
13 13 12 12 12 12 12 12 12 12 12 12 11 11 11 11 11 10 10 10 10 10 10 9 9 9 9 9 9 9 9 8 8 8 8 7 7 7 7 6 6 6 6
12 12 12 12 12 12 12 12 12 12 11 11 11 11 11 10 10 10 10 10 10 9 9 9 9 9 9 9 8 8 8 8 8 7 7 7 7 6 6 6 6 5 5
11 11 11 11 11 11 11 11 11 11 11 11 11 11 10 10 10 10 9 9 9 9 9 9 9 8 8 8 8 8 8 7 7 7 7 6 6 6 5 5 5 5 4
11 10 11 11 11 11 11 11 11 11 11 10 10 10 10 9 9 9 9 9 9 9 9 8 8 8 8 8 8 8 7 7 7 7 6 6 6 5 5 5 4 4 4
10 10 10 10 10 10 10 10 10 10 10 10 10 10 9 9 9 9 9 8 8 8 8 8 8 8 8 8 7 7 7 7 7 6 6 6 5 5 5 4 4 3 3
9 9 9 9 9 9 9 9 9 9 9 9 9 9 9 9 8 8 8 8 8 8 8 8 8 8 7 7 7 7 7 6 6 6 6 5 5 5 4 4 3 3 2
8 8 8 8 8 8 8 9 9 9 9 9 8 8 8 8 8 8 8 7 7 8 7 7 7 7 7 7 7 6 6 6 6 5 5 5 4 4 4 3 3 2 2
7 7 7 7 7 7 8 8 8 8 8 8 8 7 8 8 7 7 7 7 7 7 7 7 7 7 7 6 6 6 6 5 5 5 4 4 4 3 3 3 2 1 1
6 6 6 6 7 7 7 7 7 7 7 7 7 7 7 7 7 7 6 6 6 6 6 6 6 6 6 6 6 5 5 5 5 4 4 3 3 3 2 2 1 1 0
5 5 6 6 6 6 6 6 6 6 6 6 6 6 6 6 6 6 6 6 6 6 6 6 6 6 6 5 5 5 5 4 4 4 3 3 2 2 2 1 1 0 -0
5 5 5 5 5 5 5 5 5 5 5 5 5 5 5 5 5 5 5 5 5 5 5 5 5 5 5 5 4 4 4 4 3 3 2 2 2 1 1 1 -0 -0 -1
4 4 4 4 4 4 4 5 5 5 4 4 4 4 4 4 4 4 4 4 4 5 4 4 4 4 4 4 4 3 3 3 2 2 2 1 1 0 -0 -1 -1 -1 -2
3 3 3 3 4 4 4 4 4 4 4 4 4 4 4 4 4 4 4 4 4 4 4 4 3 3 3 3 3 2 2 2 2 1 1 0 -0 -1 -1 -1 -2 -2 -2
2 2 2 2 2 3 3 3 3 3 3 3 3 3 3 3 3 3 3 3 3 3 3 3 2 2 2 2 2 1 1 1 1 0 -0 -0 -1 -1 -2 -2 -2 -3 -3
1 1 1 1 2 2 2 2 2 2 2 2 2 2 2 2 2 2 2 2 2 2 2 2 2 1 1 1 1 1 0 0 -0 -1 -1 -1 -2 -2 -3 -3 -3 -3 -4
0 1 1 1 1 1 1 1 2 2 1 1 1 1 1 1 2 2 2 2 2 2 2 1 1 1 1 0 0 -0 -1 -1 -1 -2 -2 -2 -3 -3 -3 -4 -4 -4 -5
-0 -0 -0 -0 0 0 1 1 1 1 1 1 1 1 1 1 1 1 1 1 1 1 1 1 1 0 -0 -0 -1 -1 -1 -2 -2 -2 -3 -3 -3 -4 -4 -4 -4 -5 -5
-1 -1 -1 -1 -1 -0 -0 -0 -0 -0 -0 -0 -0 -0 -0 0 0 0 0 0 0 0 0 0 -0 -0 -1 -1 -1 -2 -2 -2 -2 -3 -3 -3 -4 -4 -4 -5 -5 -5 -6
-1 -2 -1 -1 -1 -1 -1 -1 -1 -1 -1 -1 -1 -1 -1 -1 -1 -1 -1 -1 -1 -1 -0 -1 -1 -1 -1 -1 -2 -2 -2 -2 -3 -3 -3 -4 -4 -5 -5 -5 -6 -6 -6
-2 -2 -2 -2 -2 -2 -2 -2 -2 -2 -2 -2 -2 -2 -2 -2 -1 -1 -1 -1 -1 -1 -1 -1 -1 -2 -2 -2 -2 -2 -3 -3 -3 -3 -4 -4 -5 -5 -6 -6 -6 -6 -6
-3 -3 -3 -3 -3 -2 -2 -2 -2 -2 -2 -2 -2 -2 -2 -2 -2 -2 -2 -2 -2 -2 -2 -2 -2 -2 -2 -2 -3 -3 -3 -3 -4 -4 -4 -5 -5 -6 -6 -6 -7 -7 -7
-4 -4 -4 -3 -3 -3 -3 -3 -3 -3 -3 -3 -3 -3 -3 -3 -3 -3 -3 -3 -2 -2 -2 -2 -2 -2 -3 -3 -3 -3 -4 -4 -4 -4 -5 -5 -6 -6 -6 -7 -7 -7 -7
-4 -4 -4 -4 -3 -3 -3 -3 -3 -4 -3 -3 -3 -3 -3 -3 -3 -3 -3 -3 -3 -3 -3 -3 -3 -3 -3 -3 -4 -4 -4 -4 -5 -5 -5 -6 -6 -6 -7 -7 -7 -7 -7
-4 -4 -4 -4 -4 -4 -4 -4 -4 -4 -4 -4 -4 -4 -4 -4 -4 -4 -3 -4 -4 -3 -4 -4 -4 -4 -4 -4 -4 -4 -5 -5 -5 -6 -6 -6 -6 -7 -7 -7 -7 -8 -8
-5 -5 -5 -5 -5 -5 -4 -4 -4 -4 -4 -4 -4 -4 -4 -4 -4 -4 -4 -4 -4 -4 -4 -4 -4 -4 -4 -5 -5 -5 -5 -6 -6 -6 -6 -7 -7 -7 -7 -7 -8 -8 -8
Wind_Speed
6 7 8 8 9 9 10 11 11 10 11 11 12 14 15 16 15 14 14 13 14 14 12 13 14 10 8 7 7 6 7 7 9 6 3 3 5 5 5 6 7 7 9
5 5 7 7 7 8 9 10 10 10 11 11 11 12 13 14 14 15 15 15 15 15 14 14 14 11 11 9 8 9 8 7 7 8 4 3 4 5 5 5 5 6 6
4 4 5 6 7 8 8 9 9 9 9 10 11 12 12 13 14 14 14 14 15 15 14 14 14 13 13 10 10 9 8 7 6 6 6 3 2 3 3 3 4 3 5
4 4 5 5 6 6 6 6 7 7 8 9 10 10 10 11 11 12 13 13 13 13 12 12 13 14 13 12 11 11 9 8 7 6 6 4 3 2 3 3 3 4 4
4 4 4 4 5 4 5 5 6 6 7 7 8 8 8 9 9 10 11 11 12 11 11 11 11 13 14 12 10 9 9 8 7 6 6 4 4 3 4 4 5 3 4
5 5 4 4 4 4 4 4 4 5 5 5 7 8 8 7 8 10 9 9 10 11 11 10 10 12 13 14 14 13 13 11 10 8 7 7 8 6 5 4 4 3 4
5 6 5 5 5 4 4 4 4 5 4 5 6 6 6 7 8 9 9 8 8 9 9 8 7 9 11 10 11 12 12 13 13 10 9 9 7 7 6 6 6 5 5
5 6 6 5 5 4 3 4 4 4 4 4 5 5 5 5 7 8 9 9 7 7 8 8 8 8 8 8 8 8 8 8 9 8 8 8 6 6 7 7 6 4 1
6 6 6 5 5 4 4 4 3 3 3 3 3 4 5 5 7 8 8 6 6 6 5 6 8 8 9 10 8 8 6 5 5 6 6 6 7 7 6 4 4 3 3
6 6 6 5 5 5 4 4 3 2 2 2 2 3 4 4 6 8 9 6 5 5 4 5 8 8 10 11 9 9 8 6 5 5 4 4 4 5 6 6 6 4 2
5 6 6 5 5 4 4 3 2 1 1 2 2 2 2 3 5 8 9 6 6 5 4 4 5 8 10 11 9 8 8 6 6 5 4 3 3 3 3 3 4 4 4
5 5 5 5 4 4 4 3 2 1 1 1 1 1 1 2 3 5 8 7 5 5 5 4 5 8 9 10 8 7 9 8 5 5 4 4 3 3 3 3 3 2 3
4 4 5 4 4 3 3 3 2 1 1 1 1 2 2 1 2 4 6 7 6 4 4 5 6 8 8 7 8 9 8 6 5 5 5 4 3 4 3 3 3 2 1
5 5 4 4 4 4 3 3 2 2 2 2 1 2 1 1 1 1 2 2 3 3 3 5 7 7 6 6 7 6 5 5 5 5 4 3 3 3 3 3 3 2 1
5 5 4 4 3 3 3 3 3 3 3 3 2 2 2 3 3 3 2 2 2 3 4 3 3 3 4 3 3 4 4 4 4 4 4 4 4 4 3 2 2 2 2
4 4 4 3 3 3 3 4 4 3 4 4 2 2 2 3 2 3 4 4 5 7 5 4 4 4 4 5 5 4 4 4 4 4 4 4 4 3 3 2 2 2 2
5 5 4 4 3 3 3 3 4 5 5 4 3 2 1 1 1 3 4 5 6 7 4 4 4 5 4 5 5 5 4 4 4 4 4 4 4 3 3 2 2 2 2
5 5 4 4 4 4 3 3 3 3 3 3 3 2 2 0 1 3 5 5 3 3 3 4 4 4 4 5 5 5 5 5 4 4 4 4 3 3 3 2 2 2 2
5 4 4 4 4 4 3 3 2 2 2 2 2 2 2 1 2 3 4 2 3 3 2 3 3 4 4 5 5 5 5 5 5 4 4 4 3 3 3 2 2 3 2
4 6 6 4 3 3 3 2 2 1 1 2 1 1 1 1 1 1 1 1 2 2 2 3 3 4 4 5 5 5 5 5 5 5 4 4 3 3 3 3 2 2 2
4 4 6 4 3 3 2 2 1 1 1 2 2 2 1 0 0 0 0 0 1 1 2 3 3 4 5 5 5 6 6 5 5 5 4 4 4 3 3 2 2 2 2
4 4 3 3 3 2 2 2 1 1 1 1 1 1 1 1 0 0 0 0 1 1 2 3 4 4 5 5 6 6 6 6 5 5 5 4 4 3 2 2 2 2 2
3 3 3 3 2 3 3 2 1 1 1 1 1 1 1 1 1 1 1 1 1 1 2 3 4 4 4 4 4 5 6 6 6 6 6 5 4 3 3 2 2 2 1
3 3 3 2 2 2 2 1 1 1 1 1 1 0 1 1 1 1 1 1 2 2 2 3 3 5 5 4 4 4 5 5 5 6 7 6 4 3 3 2 2 2 2
3 3 2 2 2 2 2 2 1 1 1 1 1 1 1 1 1 1 1 1 2 3 3 3 3 5 6 6 5 5 7 8 6 5 5 5 5 4 3 3 2 2 1
3 3 2 2 2 2 2 2 1 1 1 1 1 0 1 1 1 1 1 2 2 3 3 3 4 5 6 6 7 8 8 8 8 7 5 5 4 4 3 2 2 2 1
Wind_Direction
240 236 231 228 227 228 227 227 223 220 214 211 211 213 213 214 215 216 219 216 219 218 213 213 216 212 210 208 204 207 214 213 234 244 220 197 188 192 192 198 205 212 225
253 245 235 231 231 232 232 231 227 222 217 213 212 214 215 214 213 216 219 216 218 220 216 213 215 211 210 208 208 211 215 214 222 240 239 214 208 199 193 199 207 216 225
274 259 249 238 233 234 237 235 229 226 223 216 213 215 218 217 215 217 219 218 219 220 217 216 215 209 213 211 208 212 216 216 215 225 236 222 214 194 194 211 215 219 235
292 271 265 254 243 237 237 238 233 227 226 223 220 218 219 220 219 218 218 219 220 222 219 218 215 212 214 210 209 212 210 212 213 217 227 223 209 185 183 213 228 224 234
313 292 283 280 264 249 242 240 237 234 234 228 224 224 222 221 221 219 218 219 219 221 221 220 218 212 211 210 210 207 204 211 212 216 223 217 211 193 207 201 222 228 233
321 309 302 298 290 268 251 247 242 237 233 228 225 222 221 224 218 213 216 220 218 217 219 221 218 210 209 207 207 204 202 207 211 213 219 220 221 213 201 201 204 205 242
316 317 314 306 297 285 272 254 242 238 232 228 222 223 224 220 208 207 207 214 219 218 216 216 219 209 203 208 208 204 206 209 208 208 215 220 216 207 196 202 205 210 227
318 317 316 312 304 300 284 265 256 243 231 231 223 218 222 220 202 203 203 211 215 217 215 211 213 203 200 195 194 200 206 209 207 205 209 212 207 198 198 204 204 206 232
315 314 314 316 309 303 290 272 261 257 252 242 223 216 219 220 200 199 195 211 213 212 212 210 206 200 193 183 187 194 198 203 195 186 187 188 189 189 183 167 167 178 235
316 317 316 317 314 310 299 288 274 259 263 263 242 229 222 222 203 196 197 207 212 213 210 207 201 195 188 182 189 190 197 196 169 160 162 167 172 180 184 185 182 191 201
318 317 317 319 316 311 307 305 294 270 264 267 252 251 232 225 208 198 199 209 210 207 206 207 207 191 188 188 190 193 195 179 169 163 164 165 156 162 165 165 169 178 186
319 317 319 324 325 326 318 313 308 275 242 246 239 261 258 231 219 209 204 209 201 199 206 205 197 187 186 185 188 184 167 158 160 162 167 174 179 177 166 158 154 159 179
323 320 320 322 323 324 319 316 322 304 258 245 223 241 260 251 217 207 203 205 203 201 203 190 182 179 178 183 177 166 158 159 163 170 180 188 181 163 147 140 131 124 116
318 314 317 321 323 330 332 327 319 304 281 254 227 236 262 274 248 206 193 196 191 190 176 164 159 161 165 168 164 161 163 169 171 175 173 162 145 149 156 153 151 146 141
313 314 319 320 319 327 333 328 313 301 290 274 257 234 228 252 253 216 188 192 182 172 145 131 130 139 149 148 145 149 154 155 153 150 148 149 153 157 158 151 149 153 185
317 318 316 316 319 323 328 333 339 329 330 316 295 271 269 260 245 208 188 181 173 156 143 157 163 160 161 159 153 150 146 148 150 149 151 154 158 161 158 153 156 171 205
314 312 313 314 315 319 321 322 330 347 355 352 347 325 306 251 206 184 169 164 161 149 148 166 170 167 162 159 157 155 156 151 148 151 153 155 154 154 157 169 177 188 219
313 313 312 307 307 308 308 309 310 317 329 342 348 348 358 27 156 149 146 136 145 144 155 167 171 165 161 160 159 154 151 150 150 151 151 153 154 156 164 180 192 201 217
317 314 313 310 310 307 306 307 307 320 323 320 337 350 4 42 113 124 126 132 158 169 169 163 162 160 157 158 157 155 157 158 156 155 156 157 160 161 173 188 200 222 230
315 314 316 313 312 311 311 310 315 327 322 310 310 322 7 40 76 89 66 119 156 162 159 158 155 155 157 157 156 155 155 156 156 158 160 161 163 170 177 186 196 211 234
312 315 318 316 309 306 309 311 312 306 308 312 305 299 302 302 158 137 119 120 148 152 150 154 155 156 156 156 157 155 156 161 162 161 160 161 164 171 180 189 196 211 225
309 309 310 306 306 311 319 320 316 315 322 312 305 315 331 1 105 114 96 114 121 138 155 156 157 159 161 163 163 161 161 162 163 160 157 159 160 165 171 180 195 216 217
310 310 311 312 314 318 326 327 324 318 315 304 294 328 9 30 47 62 69 84 104 114 124 138 144 146 146 148 155 160 164 168 168 164 160 159 161 165 168 177 193 203 214
315 312 313 317 321 316 309 310 313 308 311 313 326 11 28 37 47 56 69 86 97 101 108 119 133 140 138 138 141 143 147 149 150 157 157 160 162 162 163 171 185 197 211
320 317 320 318 316 315 317 318 320 324 329 330 340 19 49 60 56 54 81 101 105 106 109 113 127 134 136 135 138 141 142 141 143 145 146 151 154 159 161 165 175 181 203
319 319 320 324 327 325 323 318 322 326 326 327 346 43 84 94 86 83 96 107 109 107 109 110 120 127 133 134 136 139 141 143 144 141 138 145 150 156 157 162 162 168 169
Height
1381 1382 1383 1384 1385 1386 1387 1388 1390 1392 1394 1395 1397 1399 1400 1402 1404 1407 1409 1412 1414 1416 1418 1420 1423 1426 1428 1430 1432 1434 1436 1438 1437 1438 1440 1441 1442 1442 1443 1443 1443 1442 1442
1376 1376 1376 1377 1379 1379 1379 1381 1382 1384 1385 1387 1389 1391 1393 1394 1396 1398 1400 1403 1405 1407 1409 1412 1414 1417 1419 1422 1424 1426 1428 1430 1431 1431 1432 1434 1435 1435 1435 1435 1435 1435 1435
1371 1371 1371 1371 1372 1372 1373 1374 1375 1376 1378 1380 1381 1383 1384 1386 1388 1390 1392 1394 1397 1399 1401 1403 1406 1408 1410 1413 1415 1417 1420 1422 1423 1424 1424 1426 1427 1428 1428 1428 1428 1428 1427
1367 1366 1365 1365 1365 1365 1366 1367 1368 1369 1370 1372 1374 1376 1377 1379 1381 1383 1385 1386 1388 1391 1393 1395 1398 1400 1402 1405 1407 1409 1412 1414 1416 1416 1417 1418 1419 1420 1421 1420 1420 1420 1420
1362 1361 1360 1360 1360 1359 1360 1361 1362 1362 1364 1365 1367 1369 1370 1372 1373 1375 1377 1379 1381 1383 1385 1387 1390 1392 1395 1397 1399 1401 1404 1406 1407 1409 1410 1411 1411 1412 1412 1413 1413 1413 1412
1358 1356 1355 1355 1354 1354 1354 1354 1355 1356 1357 1358 1360 1361 1362 1364 1366 1368 1370 1372 1374 1375 1377 1380 1382 1385 1387 1390 1392 1394 1396 1398 1399 1401 1402 1402 1403 1404 1405 1406 1406 1406 1405
1354 1352 1351 1350 1349 1348 1348 1348 1349 1349 1351 1351 1353 1354 1355 1356 1359 1361 1363 1365 1367 1368 1370 1373 1375 1376 1379 1382 1384 1386 1388 1390 1392 1394 1394 1395 1396 1397 1399 1399 1399 1398 1398
1351 1349 1348 1346 1344 1343 1343 1343 1343 1344 1344 1345 1346 1347 1348 1349 1352 1354 1357 1359 1360 1362 1364 1365 1367 1369 1371 1374 1376 1378 1379 1382 1384 1386 1387 1388 1390 1391 1392 1393 1392 1392 1392
1347 1345 1344 1342 1340 1339 1338 1338 1338 1338 1338 1339 1340 1341 1342 1343 1346 1348 1351 1352 1353 1354 1356 1358 1360 1362 1364 1366 1369 1370 1372 1374 1377 1379 1380 1381 1383 1384 1385 1386 1386 1386 1385
1344 1342 1340 1338 1337 1335 1334 1334 1333 1333 1333 1334 1335 1336 1336 1337 1340 1342 1344 1345 1346 1347 1349 1351 1353 1355 1357 1359 1361 1363 1364 1366 1369 1371 1373 1374 1375 1376 1378 1379 1379 1380 1379
1340 1338 1336 1335 1333 1331 1330 1330 1329 1329 1329 1329 1330 1330 1331 1332 1334 1336 1338 1339 1340 1341 1342 1344 1346 1348 1351 1353 1355 1356 1358 1360 1362 1364 1366 1367 1368 1369 1370 1372 1373 1374 1373
1336 1334 1332 1331 1329 1328 1326 1326 1325 1325 1325 1325 1325 1326 1327 1328 1329 1330 1332 1334 1335 1336 1337 1338 1340 1343 1345 1347 1349 1351 1353 1355 1356 1357 1359 1360 1362 1363 1364 1366 1367 1368 1368
1332 1330 1328 1327 1325 1324 1323 1322 1322 1321 1321 1321 1321 1321 1322 1323 1324 1325 1327 1328 1329 1331 1332 1334 1336 1337 1339 1342 1343 1345 1347 1348 1350 1352 1353 1354 1356 1357 1359 1360 1361 1362 1363
1328 1326 1324 1322 1321 1320 1320 1319 1319 1318 1318 1317 1317 1317 1318 1318 1319 1320 1321 1323 1324 1326 1327 1329 1331 1332 1334 1336 1338 1339 1341 1343 1344 1346 1348 1350 1351 1353 1354 1355 1356 1357 1358
1325 1322 1321 1319 1318 1317 1316 1316 1316 1315 1315 1315 1314 1314 1315 1314 1315 1317 1317 1318 1319 1321 1322 1324 1326 1327 1329 1331 1332 1334 1336 1338 1340 1342 1343 1345 1347 1348 1349 1351 1352 1353 1353
1321 1319 1317 1316 1314 1314 1313 1312 1312 1312 1311 1311 1311 1312 1311 1312 1312 1312 1313 1314 1315 1316 1318 1319 1321 1322 1324 1326 1328 1330 1332 1334 1336 1338 1339 1341 1343 1344 1345 1347 1348 1349 1349
1317 1315 1314 1313 1312 1311 1310 1308 1307 1307 1307 1308 1308 1308 1308 1307 1308 1308 1309 1310 1311 1312 1313 1314 1316 1318 1320 1322 1324 1326 1328 1331 1333 1335 1337 1338 1339 1341 1342 1343 1344 1345 1346
1314 1312 1311 1310 1309 1308 1306 1306 1305 1304 1303 1303 1303 1303 1304 1304 1304 1304 1305 1306 1307 1308 1309 1311 1313 1315 1317 1319 1322 1323 1326 1328 1330 1332 1334 1335 1337 1338 1339 1340 1341 1342 1343
1311 1309 1308 1307 1306 1304 1304 1303 1302 1301 1301 1300 1299 1300 1301 1301 1301 1302 1302 1303 1303 1304 1306 1308 1310 1312 1314 1317 1319 1321 1323 1325 1327 1329 1331 1333 1334 1335 1336 1337 1338 1339 1340
1308 1306 1305 1304 1302 1301 1301 1300 1300 1299 1298 1298 1297 1297 1298 1298 1298 1298 1300 1300 1301 1302 1304 1306 1308 1310 1312 1314 1316 1318 1320 1322 1324 1326 1328 1330 1332 1333 1334 1335 1335 1336 1337
1305 1303 1302 1301 1299 1299 1298 1297 1297 1297 1296 1296 1296 1296 1296 1296 1296 1297 1297 1298 1299 1300 1302 1303 1305 1308 1310 1312 1313 1315 1317 1319 1321 1323 1325 1327 1329 1330 1331 1332 1333 1333 1334
1302 1301 1299 1298 1297 1296 1296 1295 1295 1294 1294 1294 1294 1294 1294 1294 1295 1295 1296 1296 1297 1299 1300 1301 1303 1305 1307 1309 1311 1313 1314 1316 1319 1320 1322 1324 1326 1327 1328 1329 1330 1331 1331
1300 1298 1297 1296 1295 1294 1294 1293 1293 1292 1292 1292 1292 1292 1292 1292 1293 1293 1294 1295 1296 1297 1298 1299 1300 1302 1305 1307 1309 1311 1312 1314 1316 1318 1319 1321 1323 1324 1326 1327 1328 1328 1329
1297 1296 1295 1294 1293 1292 1292 1291 1291 1291 1290 1290 1290 1290 1291 1291 1291 1292 1292 1293 1294 1295 1296 1297 1299 1300 1303 1305 1306 1308 1310 1312 1314 1316 1317 1319 1320 1322 1324 1325 1326 1327 1327
1295 1294 1293 1292 1291 1290 1290 1290 1289 1289 1289 1289 1289 1289 1289 1290 1290 1290 1291 1291 1292 1293 1294 1296 1297 1299 1301 1303 1305 1307 1309 1311 1312 1314 1316 1318 1319 1321 1322 1323 1324 1325 1326
1293 1292 1291 1290 1289 1289 1288 1288 1288 1288 1287 1287 1287 1288 1288 1288 1289 1289 1290 1290 1291 1292 1293 1294 1296 1298 1300 1302 1304 1306 1307 1309 1311 1313 1315 1316 1318 1319 1321 1322 1323 1324 1325